Location: Newark
(45.2862°N, 9.8850°E)
Time: 22:44:21
(UTC+00:00)

N. Korean satellite - Pass Details

Date: 17 December 2019
Orbit: 454 x 507 km, 97.2° (Epoch: 21 January)

Event Time Altitude Azimuth Distance (km) Brightness Sun altitude
Rises 17:19:56 0° 205° (SSW) 2,592 10.9 -16.9°
Reaches altitude 10° 17:22:38 10° 227° (SW) 1,707 10.3 -17.4°
Maximum altitude 17:25:02 16° 268° (W) 1,350 9.8 -17.8°
Drops below altitude 10° 17:27:25 10° 309° (NW) 1,702 9.8 -18.2°
Sets 17:30:07 0° 331° (NNW) 2,580 10.4 -18.7°
